Detroit Metro, MI

5:54 PM EDT on April 27, 2017 (GMT -0400)
Detroit Metro Wayne County

Weather History for KDTW - December, 2013

Change the Weather History Date:

Saturday, December 7, 2013

  Actual Average Record
Temperature  
Mean Temperature 21 °F 33 °F  
Max Temperature 26 °F 39 °F 62 °F (1951)
Min Temperature 16 °F 27 °F 1 °F (1885)
Degree Days  
Heating Degree Days 44 32  
Month to date heating degree days 212 218  
Since 1 July heating degree days 1514 1433  
Cooling Degree Days 0 0  
Month to date cooling degree days 0 0  
Year to date cooling degree days 891 803  
Moisture  
Dew Point 8 °F    
Average Humidity 58    
Maximum Humidity 74    
Minimum Humidity 42    
Precipitation  
Precipitation T in 0.08 in 1.47 in (1950)
Month to date precipitation 0.09 0.58  
Year to date precipitation 37.57 31.59  
Snow  
Snow T in 0.20 in 6.60 in (1994)
Month to date snowfall 0.1 1.5  
Since 1 July snowfall 1.3 3.1  
Snow Depth 0.00 in    
Sea Level Pressure  
Sea Level Pressure 30.55 in    
Wind  
Wind Speed 8 mph (WNW)    
Max Wind Speed 16 mph    
Max Gust Speed 20 mph    
Visibility 10 miles    
Events Snow    
T = Trace of Precipitation, MM = Missing Value Source: NWS Daily Summary

Daily Weather History Graph

Daily Weather History Graph

Search for Another Location

Airport or City:

Trip Planner

Search our weather history database for the weather conditions in past years. The results will help you decide how hot, cold, wet, or windy it might be!

Date:

Astronomy

Dec. 07, 2013 Rise Set
Actual Time 7:48 AM EST 5:01 PM EST
Civil Twilight 7:17 AM EST 5:32 PM EST
Nautical Twilight 6:42 AM EST 6:07 PM EST
Astronomical Twilight 6:08 AM EST 6:41 PM EST
Moon 11:29 AM EST (12/7) 10:46 PM EST (12/7)
Length of Visible Light 10h 15m
Length of Day
9h 12m
Waxing Crescent, 29% of the Moon is Illuminated
Dec 7
Waxing Crescent
Dec 9
First Quarter
Dec 17
Full
Dec 25
Last Quarter
Jan 1
New

Hourly Weather History & Observations

Time (EST) Temp. Windchill Dew Point Humidity Pressure Visibility Wind Dir Wind Speed Gust Speed Precip Events Conditions
12:53 AM 21.0 °F 9.3 °F 12.0 °F 68% 30.43 in 10.0 mi WNW 11.5 mph - N/A   Mostly Cloudy
1:53 AM 21.0 °F 9.9 °F 10.0 °F 63% 30.43 in 9.0 mi NW 10.4 mph - 0.00 in Snow Light Snow
2:00 AM 19.4 °F 7.2 °F 10.4 °F 68% 30.41 in 9.0 mi NW 11.5 mph - 0.00 in Snow Light Snow
2:53 AM 19.9 °F 7.3 °F 9.0 °F 62% 30.46 in 9.0 mi WNW 12.7 mph - 0.00 in Snow Light Snow
3:00 AM 19.4 °F 7.2 °F 8.6 °F 63% 30.43 in 9.0 mi WNW 11.5 mph - 0.00 in Snow Light Snow
3:53 AM 18.0 °F 6.9 °F 7.0 °F 62% 30.47 in 10.0 mi NW 9.2 mph - 0.00 in   Scattered Clouds
4:53 AM 17.1 °F 10.0 °F 7.0 °F 65% 30.50 in 10.0 mi WNW 4.6 mph - N/A   Scattered Clouds
5:53 AM 17.1 °F 10.0 °F 8.1 °F 68% 30.52 in 10.0 mi WSW 4.6 mph - N/A   Scattered Clouds
6:53 AM 17.1 °F 8.7 °F 10.0 °F 74% 30.53 in 10.0 mi SW 5.8 mph - N/A   Mostly Cloudy
7:53 AM 17.1 °F 8.7 °F 10.9 °F 77% 30.55 in 9.0 mi WSW 5.8 mph - 0.00 in Snow Light Snow
8:53 AM 19.0 °F 11.1 °F 12.0 °F 74% 30.58 in 10.0 mi West 5.8 mph - 0.00 in   Mostly Cloudy
9:53 AM 21.0 °F 8.6 °F 6.1 °F 53% 30.59 in 10.0 mi WNW 12.7 mph - N/A   Mostly Cloudy
10:53 AM 23.0 °F 10.6 °F 7.0 °F 50% 30.60 in 10.0 mi WSW 13.8 mph - N/A   Mostly Cloudy
11:53 AM 24.1 °F 13.1 °F 7.0 °F 48% 30.60 in 10.0 mi WNW 11.5 mph 17.3 mph N/A   Scattered Clouds
12:53 PM 26.1 °F 17.6 °F 7.0 °F 44% 30.58 in 10.0 mi WNW 8.1 mph - N/A   Scattered Clouds
1:53 PM 25.0 °F 13.6 °F 7.0 °F 46% 30.58 in 10.0 mi West 12.7 mph - N/A   Scattered Clouds
2:53 PM 26.1 °F 16.8 °F 7.0 °F 44% 30.57 in 10.0 mi WNW 9.2 mph 16.1 mph N/A   Scattered Clouds
3:53 PM 25.0 °F 14.8 °F 7.0 °F 46% 30.58 in 10.0 mi WNW 10.4 mph - N/A   Scattered Clouds
4:53 PM 21.9 °F 11.0 °F 7.0 °F 53% 30.60 in 10.0 mi WNW 10.4 mph - N/A   Scattered Clouds
5:53 PM 19.9 °F 12.1 °F 7.0 °F 57% 30.61 in 10.0 mi West 5.8 mph - N/A   Partly Cloudy
6:53 PM 19.9 °F 12.1 °F 8.1 °F 60% 30.62 in 10.0 mi WNW 5.8 mph - N/A   Partly Cloudy
7:53 PM 19.0 °F 12.3 °F 8.1 °F 62% 30.63 in 10.0 mi WNW 4.6 mph - N/A   Partly Cloudy
8:53 PM 18.0 °F 9.8 °F 8.1 °F 65% 30.64 in 10.0 mi West 5.8 mph - N/A   Partly Cloudy
9:53 PM 17.1 °F 8.7 °F 9.0 °F 71% 30.64 in 10.0 mi WNW 5.8 mph - N/A   Partly Cloudy
10:53 PM 16.0 °F 8.8 °F 8.1 °F 71% 30.63 in 10.0 mi WNW 4.6 mph - N/A   Partly Cloudy
11:53 PM 16.0 °F 10.4 °F 8.1 °F 71% 30.63 in 10.0 mi WNW 3.5 mph - N/A   Partly Cloudy